MIDAS 5 DEB, 273

Orbit data source: Space-Track

MIDAS 5 DEB, 273 is space debris in LEO originally from a launch on Mon, 09 Apr 1962 UTC launched from the Air Force Western Test Range (AFWTR). Debris objects in space refer to the collection of defunct objects orbiting the Earth. Examples of debris include non-operational satellites, rocket bodies, and fragments generated from explosions, collisions, or faulty payload assembly.

Loading next visibility...
Identifier
273, 1962-010C
Orbit
LEO
Country
Flag of USUS
Related business
Manufacturer
Unknown
Mission
Spacecraft
Bus & Motor
Unknown
Mass
~10 kg wet, ~10 kg dry
Launch date (UTC)
1962-04-09 (64 years ago)
Launch vehicle
Unknown
Launch site
Air Force Western Test Range (AFWTR)
Object type
Payload
Rocket body
Debris
Shape & HBR
Unknown shape, 0.4 m
Radar Cross Section
Medium (>0.1 m² and <1 m²)

Expand to show TLE details & history
Last TLE update: 1 day ago

TLE from 1 day ago
0 MIDAS 5 DEB
1 00273U 62010C   26037.14838585  .00000046  00000-0  81833-2 0  9996
2 00273  86.6656 316.2536 0327850  20.4124 340.9547  9.43828941198924
Epoch: 2026-02-06T03:33Z
TLE epoch observation values (Epoch: 2026-02-06T03:33:40.537Z)
Latitude
0.00004°
Longitude
126.54428°
Altitude
2,790.314 km
Speed
6.695 km/s
True Right ascension
21h 05m 00s
True Declination
0° 00' 00"
Sunlit
Object was in daylight at epoch
Visualization orbit readout
Latitude
Unknown
Longitude
Unknown
Altitude
Unknown
Speed
Unknown
Apparent Right ascension
Unknown
Apparent Declination
Unknown
Sunlit
N/A
Visualization observer readout
Local Sidereal Time
08:32:27
Azimuth
Unknown
Elevation
Unknown
Doppler factor
Unknown
Orbital elements
Apogee altitude
3,387.724 km
Perigee altitude
2,767.703 km
Semi-major axis
9,455.85 km
Eccentricity
0.03279
Inclination
86.6656°
RAAN
316.2536°
Arg. of periapsis
20.4124°
True anomaly
339.67956°
Mean anomaly
340.9547°
Eccentric anomaly
340.32217°
Mean motion
2.36044 °/min
Orbital period
152.51 mins
BSTAR
0.0081833
Loading maneuver chart data...
Computing Atmospheric mass density...
Loading historical data...
Loading historical data...
Loading historical data...
Loading historical data...
Loading historical data...
Loading historical data...
Loading historical data...

Documentation

Showing up to 5 results
|